Wind_Speed
8 8 8 7 7 7 6 6 6 6 5 4 4 4 4 4 5 4 4 4 4 4 4 4 4 4 4 5 5 6 6 6 6 6 6 6 7 7 7 8 8 9 9
7 7 6 6 6 5 5 5 5 4 3 3 3 4 4 4 5 5 5 5 5 5 5 5 5 5 5 6 7 7 7 7 8 8 8 8 8 8 9 9 10 10 10
6 6 6 5 5 4 4 5 4 4 3 4 3 3 4 5 5 5 5 6 6 6 6 6 6 6 7 7 8 8 9 9 10 10 10 10 9 10 10 11 11 11 11
5 5 5 5 4 4 3 3 4 4 4 4 4 4 4 4 5 5 5 6 6 6 6 7 7 8 8 8 9 9 10 10 10 11 11 10 10 11 12 13 12 12 12
5 5 4 4 3 3 3 3 3 4 4 4 4 4 5 5 5 5 5 6 6 7 7 7 8 9 10 10 10 11 11 11 11 11 11 12 12 13 13 14 14 14 14
4 4 4 3 3 2 2 3 3 3 4 4 5 5 5 5 5 6 6 6 7 8 8 9 9 10 11 11 12 12 13 13 13 13 13 13 13 14 14 14 14 15 15
4 3 3 3 2 2 2 2 2 3 3 3 4 4 5 5 6 6 6 7 8 8 9 10 11 11 12 12 12 13 13 14 14 14 14 14 14 15 14 15 15 16 16
4 3 2 2 2 1 2 2 2 3 3 3 3 4 5 5 6 6 7 8 8 9 10 11 11 12 12 13 13 14 14 13 14 14 15 15 15 15 16 16 16 16 16
4 3 2 1 1 1 2 3 3 2 2 3 3 4 4 5 6 7 8 9 10 10 11 11 12 12 12 13 14 14 14 13 14 15 16 16 16 16 16 16 16 16 17
4 4 3 3 2 1 1 1 2 3 4 5 5 6 6 6 7 8 9 9 10 11 11 11 12 12 12 13 13 13 14 15 15 15 16 17 17 17 17 17 17 18 18
5 4 4 3 3 2 1 2 2 3 4 5 5 6 7 8 9 9 10 10 11 11 12 12 13 13 13 14 14 15 16 16 16 16 17 17 17 17 18 18 19 19 18
4 4 4 4 4 3 2 3 4 4 5 5 6 6 7 8 8 9 10 11 11 12 13 13 13 13 14 14 14 14 15 16 16 16 17 17 17 18 18 19 19 20 20
3 3 3 3 4 4 4 5 5 5 5 5 6 7 8 9 9 11 11 12 13 13 13 13 14 14 15 15 15 15 16 17 18 18 18 18 19 19 19 19 20 21 21
3 2 3 3 4 4 5 5 6 6 6 6 7 8 9 10 11 11 12 13 13 14 14 15 16 16 17 17 17 17 18 19 19 19 19 19 20 20 20 20 21 22 22
3 3 3 4 4 5 6 7 7 7 7 7 8 9 10 11 11 12 12 13 14 15 15 16 17 17 17 18 18 18 19 20 20 20 21 21 21 21 21 21 22 23 23
5 5 5 6 7 8 8 9 9 9 9 9 10 10 11 12 13 13 14 15 16 16 17 17 18 19 19 20 20 20 21 21 21 21 22 22 22 22 22 23 24 24 24
7 7 8 9 10 10 11 11 11 10 10 10 11 12 13 14 15 15 16 17 17 18 18 18 19 20 21 21 22 22 23 23 22 23 23 23 23 24 25 25 25 25 26
10 10 10 10 11 12 12 13 12 12 13 13 13 14 15 15 16 17 17 18 18 19 20 20 20 21 22 23 23 24 24 25 24 24 25 25 25 26 26 26 26 26 27
12 12 12 12 12 13 14 14 14 14 14 14 15 16 16 17 18 19 19 19 20 21 22 22 23 23 24 24 23 24 24 25 25 26 26 26 26 27 27 27 28 28 28
14 14 14 14 15 15 15 15 15 15 15 16 16 17 18 18 19 20 20 21 22 23 24 24 24 24 24 24 24 25 25 25 26 27 27 27 28 28 28 28 28 29 29
16 15 16 16 17 17 17 17 17 17 17 17 18 18 18 19 20 21 22 23 24 25 25 25 25 25 24 24 25 25 26 27 27 28 29 29 29 29 29 29 30 30 30
17 16 16 17 18 19 18 18 18 18 19 18 19 20 20 21 22 23 24 25 25 25 25 25 25 25 25 26 27 27 28 28 28 29 29 29 29 30 30 30 30 31 31
20 18 18 18 19 20 20 20 20 20 20 20 21 22 23 23 23 24 25 26 26 26 27 26 27 27 28 28 29 29 28 29 29 29 30 30 30 30 30 30 31 31 31
22 20 20 21 21 22 22 23 22 22 22 23 23 24 25 25 26 26 26 27 27 27 28 28 28 28 29 29 29 29 29 30 30 30 31 30 30 30 30 31 31 31 30
25 25 24 24 25 26 26 26 25 25 26 26 26 28 28 28 28 28 28 28 28 29 29 29 28 29 29 29 29 30 30 31 31 32 32 31 31 31 31 31 31 31 31
28 29 29 28 28 28 29 29 28 28 28 29 29 30 30 31 30 29 28 28 29 30 30 30 30 30 30 30 30 31 31 31 31 31 31 31 31 31 32 32 32 31 31
Wind_Direction
126 126 129 130 132 138 144 144 148 158 166 171 179 186 191 196 196 201 210 222 228 235 241 252 254 249 256 257 259 267 271 271 275 276 272 269 270 273 275 277 282 281 279
131 132 134 137 143 145 150 157 163 171 174 182 189 193 199 208 212 218 227 233 236 240 243 253 254 256 263 266 268 272 274 275 275 272 270 269 267 268 273 276 279 281 279
139 140 144 144 148 154 158 166 175 182 196 198 196 196 206 215 223 231 240 244 248 249 251 255 256 261 266 270 274 274 275 278 278 272 270 270 271 271 273 276 277 278 279
141 147 154 155 155 159 171 183 190 193 196 201 208 209 219 228 237 240 246 252 255 257 259 260 261 265 271 276 277 278 280 280 282 277 272 271 275 279 279 275 275 275 277
141 149 153 156 158 164 181 197 210 208 204 208 217 219 227 236 245 241 247 258 262 264 265 268 270 269 272 278 277 279 280 280 284 281 278 275 277 279 280 278 274 274 275
141 148 154 160 165 175 187 203 214 221 223 227 231 237 239 243 252 250 256 261 265 267 269 270 272 276 278 281 278 277 278 279 280 280 279 279 279 279 279 282 278 276 277
134 133 148 165 170 178 196 209 228 229 235 241 242 242 245 246 253 259 262 265 270 272 272 273 273 276 279 281 279 278 281 281 279 280 280 280 283 281 280 280 280 279 279
122 123 137 148 169 204 230 239 253 257 261 258 254 251 257 260 270 266 270 275 276 276 279 280 279 280 277 279 280 278 280 282 282 280 280 281 283 282 281 281 279 279 280
98 99 99 96 142 254 259 263 269 280 285 280 277 271 272 273 276 278 277 279 280 283 285 283 283 282 280 281 282 283 282 283 284 280 281 282 282 279 278 283 282 280 281
83 78 77 66 58 25 332 293 278 277 281 281 286 288 288 285 287 287 287 285 284 284 288 289 287 285 285 285 283 283 285 287 287 285 284 283 281 279 280 282 281 281 281
72 67 62 56 47 40 29 347 314 297 290 284 286 293 296 293 293 292 291 289 288 289 290 289 288 288 286 287 286 285 288 288 287 287 286 285 283 283 283 283 283 281 281
68 60 55 46 36 25 10 347 327 315 302 296 295 299 300 297 297 296 297 294 292 293 292 289 287 289 290 288 288 289 291 291 289 288 288 287 286 287 284 283 285 284 283
55 47 42 31 19 10 360 349 336 326 317 313 306 304 303 301 298 297 295 296 295 295 293 293 292 290 289 289 289 290 291 292 290 288 288 288 287 287 286 286 286 286 285
27 19 14 4 355 351 348 342 334 326 320 312 306 302 303 304 302 300 299 299 297 296 295 294 294 290 290 291 289 290 291 291 291 289 288 288 288 288 288 287 287 288 286
338 341 345 338 334 331 329 324 323 318 315 311 307 304 304 304 303 303 304 303 302 298 296 297 296 294 292 292 291 291 291 291 291 290 289 288 289 289 289 288 289 288 286
318 306 311 316 317 316 316 318 318 315 310 307 305 304 303 302 302 302 304 304 302 301 300 300 299 295 293 292 292 291 291 291 291 291 290 289 288 287 288 289 289 288 287
311 309 305 307 310 311 314 311 311 310 306 304 302 300 301 300 301 301 302 302 301 302 301 300 300 296 295 293 293 293 290 290 291 292 291 290 289 288 289 289 289 288 288
303 304 305 308 310 310 312 312 307 307 306 303 301 300 301 300 300 300 301 301 301 300 298 297 296 297 296 294 292 292 291 290 291 291 291 290 291 290 290 291 290 289 289
293 297 300 303 305 306 309 311 307 304 304 303 301 301 300 300 299 298 298 298 299 298 296 294 293 294 295 295 295 294 293 292 291 291 291 291 291 292 292 291 290 290 289
285 289 292 295 299 302 306 308 308 305 302 303 302 301 301 300 299 298 298 297 297 296 296 295 293 293 293 294 296 295 294 293 292 292 292 291 292 292 292 292 291 290 290
285 284 290 293 299 300 302 303 304 305 303 304 303 301 301 301 302 301 300 300 299 297 296 295 295 293 294 295 296 297 296 294 293 292 291 291 292 292 292 291 290 290 290
288 285 292 296 298 301 302 305 305 306 305 303 304 304 304 303 302 301 300 299 299 298 298 297 298 297 295 296 297 297 296 296 295 295 293 292 291 292 292 291 290 290 290
290 288 291 293 297 301 303 305 304 303 304 304 303 303 305 304 302 302 301 300 300 300 299 299 299 298 296 295 296 296 296 296 296 296 294 293 291 292 293 292 291 290 290
285 286 288 289 293 297 298 300 299 298 299 300 300 301 301 301 301 300 301 300 299 299 299 299 299 299 297 295 294 295 296 296 295 294 293 293 293 293 293 292 292 292 292
280 282 284 287 289 290 291 295 295 294 294 295 296 297 298 298 298 299 299 298 297 298 298 299 299 299 300 299 297 296 296 295 295 294 293 292 293 293 293 292 292 292 292
280 281 283 285 287 288 289 290 291 292 291 291 292 294 295 296 297 297 296 296 296 296 296 297 298 298 299 298 297 297 296 294 294 293 293 293 293 293 293 292 292 292 292
Height
5886 5886 5887 5888 5888 5889 5890 5891 5891 5892 5893 5894 5894 5895 5895 5896 5897 5897 5898 5898 5898 5899 5899 5899 5899 5899 5899 5899 5899 5899 5899 5898 5898 5898 5897 5897 5897 5897 5897 5897 5896 5896 5896
5887 5887 5888 5889 5889 5890 5891 5891 5892 5892 5893 5893 5894 5895 5895 5895 5896 5897 5897 5897 5897 5897 5898 5898 5898 5898 5898 5898 5897 5897 5897 5897 5896 5896 5896 5895 5895 5895 5895 5895 5894 5894 5894
5888 5889 5890 5890 5890 5891 5891 5892 5892 5893 5893 5893 5894 5894 5895 5895 5896 5896 5896 5897 5897 5897 5897 5897 5897 5897 5896 5896 5896 5895 5895 5895 5894 5894 5894 5893 5893 5893 5893 5892 5892 5892 5891
5889 5890 5890 5891 5891 5891 5892 5892 5892 5893 5893 5893 5894 5894 5895 5895 5895 5895 5895 5896 5896 5896 5895 5895 5895 5895 5895 5894 5894 5893 5893 5892 5892 5891 5891 5891 5891 5891 5890 5889 5889 5889 5888
5890 5890 5891 5891 5891 5892 5892 5892 5892 5892 5893 5893 5893 5893 5894 5894 5894 5894 5894 5894 5894 5894 5894 5894 5893 5893 5893 5892 5892 5891 5890 5890 5889 5889 5888 5888 5888 5887 5887 5886 5886 5885 5885
5890 5891 5891 5891 5892 5892 5892 5892 5892 5892 5892 5892 5892 5893 5893 5893 5893 5893 5893 5893 5893 5893 5892 5892 5892 5891 5891 5890 5890 5889 5888 5888 5887 5886 5886 5885 5885 5884 5884 5883 5882 5882 5882
5891 5891 5892 5892 5892 5892 5892 5892 5892 5892 5892 5891 5892 5892 5892 5891 5891 5891 5891 5891 5891 5891 5890 5890 5890 5889 5888 5888 5887 5887 5886 5885 5884 5884 5883 5882 5882 5881 5880 5880 5879 5878 5878
5891 5891 5892 5892 5892 5892 5892 5892 5892 5892 5891 5891 5891 5891 5891 5891 5890 5890 5890 5890 5889 5889 5888 5888 5887 5887 5886 5885 5885 5884 5883 5882 5881 5881 5880 5879 5878 5878 5877 5876 5875 5874 5874
5892 5892 5892 5892 5892 5892 5891 5891 5891 5891 5891 5890 5890 5890 5889 5890 5889 5889 5888 5888 5888 5887 5886 5885 5885 5884 5883 5883 5882 5881 5880 5879 5878 5877 5877 5876 5875 5874 5873 5872 5871 5870 5870
5893 5892 5892 5892 5891 5891 5891 5891 5890 5890 5890 5889 5889 5889 5888 5888 5888 5887 5887 5886 5885 5885 5884 5883 5882 5881 5880 5880 5879 5878 5877 5876 5875 5874 5873 5872 5871 5870 5869 5869 5868 5866 5866
5893 5893 5892 5892 5891 5891 5890 5890 5889 5889 5888 5888 5888 5887 5887 5886 5886 5885 5884 5884 5883 5882 5881 5880 5879 5878 5877 5877 5876 5875 5874 5873 5872 5871 5870 5868 5867 5866 5865 5864 5863 5862 5861
5894 5893 5893 5892 5891 5891 5890 5889 5888 5888 5887 5887 5886 5886 5885 5884 5883 5883 5882 5881 5880 5879 5878 5877 5876 5875 5874 5873 5872 5871 5870 5869 5868 5867 5866 5864 5863 5862 5861 5860 5859 5857 5856
5895 5894 5893 5892 5891 5891 5890 5889 5888 5887 5886 5885 5884 5884 5883 5882 5882 5881 5880 5879 5877 5877 5875 5874 5873 5872 5871 5870 5868 5868 5866 5865 5864 5863 5862 5860 5859 5858 5856 5855 5854 5852 5851
5895 5894 5893 5892 5891 5890 5889 5888 5887 5886 5885 5884 5883 5882 5881 5880 5879 5878 5877 5876 5875 5874 5872 5871 5869 5868 5867 5865 5864 5863 5862 5861 5860 5858 5857 5856 5854 5853 5852 5850 5849 5847 5846
5895 5894 5893 5892 5891 5890 5889 5887 5886 5884 5883 5882 5881 5880 5879 5878 5877 5875 5874 5873 5872 5870 5869 5867 5865 5864 5863 5862 5860 5859 5858 5856 5855 5853 5852 5850 5849 5848 5846 5845 5843 5841 5840
5894 5893 5892 5891 5890 5889 5887 5886 5884 5883 5881 5880 5879 5878 5877 5875 5874 5873 5871 5869 5868 5866 5865 5863 5861 5860 5858 5857 5855 5854 5852 5851 5849 5848 5846 5845 5844 5842 5840 5839 5837 5835 5833
5893 5892 5891 5890 5888 5887 5885 5884 5882 5880 5879 5878 5876 5875 5874 5872 5871 5869 5868 5866 5864 5862 5860 5859 5857 5855 5853 5852 5850 5848 5847 5845 5844 5842 5841 5839 5837 5836 5834 5832 5830 5828 5827
5891 5890 5889 5887 5886 5884 5883 5881 5879 5878 5877 5875 5873 5872 5870 5869 5867 5865 5864 5862 5860 5858 5856 5854 5853 5850 5848 5846 5844 5843 5841 5839 5837 5836 5834 5833 5831 5829 5827 5825 5823 5821 5820
5888 5887 5886 5885 5883 5882 5880 5878 5877 5875 5873 5872 5870 5868 5866 5865 5863 5861 5859 5857 5855 5853 5851 5849 5847 5845 5843 5840 5838 5836 5834 5833 5831 5829 5828 5826 5824 5822 5820 5818 5816 5814 5812
5885 5884 5883 5881 5880 5878 5877 5875 5873 5872 5870 5868 5866 5864 5862 5860 5858 5856 5854 5852 5850 5847 5845 5843 5841 5839 5837 5834 5832 5830 5828 5826 5824 5822 5820 5818 5816 5814 5812 5810 5808 5806 5804
5880 5880 5879 5878 5876 5874 5873 5871 5869 5867 5866 5864 5862 5859 5857 5855 5853 5850 5848 5846 5844 5841 5839 5836 5834 5832 5830 5828 5826 5823 5821 5819 5817 5815 5813 5811 5809 5807 5805 5802 5800 5798 5796
5875 5875 5874 5873 5871 5870 5868 5867 5865 5863 5861 5859 5857 5854 5852 5850 5847 5845 5842 5840 5838 5835 5833 5830 5827 5825 5823 5821 5819 5816 5814 5812 5810 5808 5805 5803 5801 5799 5796 5794 5792 5790 5788
5871 5870 5869 5867 5866 5865 5864 5862 5860 5858 5856 5854 5852 5849 5847 5844 5841 5839 5836 5834 5831 5828 5826 5823 5821 5818 5816 5813 5811 5809 5806 5804 5802 5800 5797 5795 5793 5790 5788 5786 5783 5781 5779
5865 5864 5863 5862 5861 5860 5858 5857 5855 5852 5851 5848 5846 5843 5841 5838 5835 5832 5830 5827 5825 5822 5819 5817 5814 5811 5808 5805 5803 5801 5799 5796 5794 5792 5789 5787 5784 5782 5779 5777 5775 5773 5770
5859 5858 5857 5856 5855 5853 5852 5850 5848 5846 5844 5842 5839 5836 5834 5831 5828 5825 5823 5820 5818 5815 5812 5809 5806 5803 5801 5798 5795 5792 5790 5788 5785 5783 5780 5778 5776 5773 5771 5769 5766 5764 5762
5852 5851 5850 5849 5847 5846 5845 5843 5840 5838 5836 5834 5832 5829 5826 5823 5820 5817 5815 5812 5810 5807 5804 5802 5799 5796 5793 5790 5787 5784 5781 5779 5776 5774 5772 5769 5767 5764 5762 5760 5757 5755 5753